Terug naar catalogus

INTELSAT 1-F1

ActiefCommunicatieGEO
NORAD 1317·PAYLOAD· XX

Gelanceerd Apr 6, 1965 vanaf Cape Canaveral Space Force Station

Loading…

TLE

VersSource: Space-Track

Epoch: Sep 14, 2026, 13:20 UTC

1 01317U 65028A   26257.55561957  .00000117  00000-0  00000-0 0  9997
2 01317   7.3689  62.7666 0008589 146.4194 197.2708  1.00218013128066

Volg INTELSAT 1-F1 in realtime met AllMySat

Download on the App Store